Airfield :
LOGIN :

Register | Disclaimer

   EN    FR    IT 

 










Legend :    VFR   Marginal VFR   IFR   Intensive IFR   Very Intensive IFR
Visi :
Ceiling :
>= 8 km
>= 3000ft
5 to 8 km
1000 to 3000 ft
1500m to 5 km
500 to 1000 ft
800 to 1500m
200 to 500 ft
< 800m
< 200 ft
Symbols :   Thunderstorms  Fog  Heavy snow  Heavy precipitations  Wind > 20 kt
SIGMETs :     Misc.  Thunderstorms  Icing  Turbulence  Mountain Waves  Volcanic Ashes







- Airport Elevation : 177 ft
- IATA code : BRI


LIBD - Palese Macchie Bari

CURRENT METAR :
  • 211150Z 02016KT 9999 FEW030 27/16 Q1014

EXPIRED METARs :
  • 211120Z 01017KT 9999 FEW030 27/16 Q1014
  • 211050Z 01017KT 9999 FEW030 27/16 Q1014
  • 211020Z 36015KT 9999 FEW030 27/16 Q1014
  • 210950Z 35016KT 9999 FEW030 27/16 Q1014
  • 210920Z 35015KT 9999 SCT030 26/16 Q1014

TAF TAF LIBD
Valid from the 21 at 12:00 until the 22 at 12:00 UTC


211100Z 2112/2212 01015KT 9999 FEW030
TEMPO 2112/2120 01015G25KT
BECMG 2119/2121 29010KT
BECMG 2206/2208 36014KT
No reported NOTAMs for that airfield.



MET'MAP, your aeronautical weather chart ! - Copyright ORBIFLY December 2007 - Disclaimer

ORBIFLY MET'MAP TEAM :

Programming & Development : Alexandra Zaïnal
Concept & Development : Baudouin d'Aumeries
Co-Development & Prog : Marc-Olivier Méhu
Technical & hardware support : Manuel Goepfert

Contact : metmap@orbifly.com




SOURCES & CREDITS :

   NOAA